This demonstration page uses our WeatherBlox Daily Observations layout. Learn more.

Left ArrowRight Arrow

44.8408, -93.29828

Hourly Observations for December 23, 2017

Temp ( °F °C ) Dew Point ( °F °C ) Humidity (%) Winds ( mph kmh ) Pressure ( in mb ) Visibility ( mi km ) Precip ( " mm )
12:53 am 00:53 Partly Cloudy 16 -8.9 9 -12.8 74 74 NW 17 28 30.21 1023 10 16 0.00 0.00
1:53 am 01:53 Mostly Clear 14 -10 8 -13.3 77 77 NW 14 22 30.22 1023 10 16 0.00 0.00
2:21 am 02:21 Mostly Cloudy 14 -10 8 -13.3 77 77 NW 10 17 30.27 1025 10 16 0.00 0.00
2:53 am 02:53 Cloudy 15 -9.4 7 -13.9 70 70 NNW 15 24 30.22 1023 10 16 0.00 0.00
3:53 am 03:53 Cloudy 15 -9.4 6 -14.4 67 67 NW 17 28 30.22 1024 10 16 0.00 0.00
4:37 am 04:37 Partly Cloudy 13 -10.6 5 -15 70 70 WNW 9 15 30.27 1025 10 16 0.00 0.00
4:53 am 04:53 Mostly Clear 12 -11.1 5 -15 73 73 WNW 7 11 30.23 1024 10 16 0.00 0.00
5:53 am 05:53 Clear 12 -11.1 5 -15 73 73 W 5 7 30.22 1024 10 16 0.00 0.00
6:53 am 06:53 Mostly Clear 12 -11.1 5 -15 73 73 W 6 9 30.24 1024 10 16 0.00 0.00
7:53 am 07:53 Sunny 12 -11.1 6 -14.4 77 77 W 6 9 30.24 1024 10 16 0.00 0.00
8:53 am 08:53 Sunny 13 -10.6 7 -13.9 77 77 W 9 15 30.24 1024 10 16 0.00 0.00
9:53 am 09:53 Sunny 14 -10 8 -13.3 77 77 W 10 17 30.25 1024 10 16 0.00 0.00
10:53 am 10:53 Sunny 17 -8.3 8 -13.3 68 68 W 8 13 30.26 1025 10 16 0.00 0.00
11:53 am 11:53 Sunny 19 -7.2 6 -14.4 57 57 W 14 22 30.24 1024 10 16 0.00 0.00
12:53 pm 12:53 Sunny 21 -6.1 7 -13.9 54 54 W 12 19 30.22 1023 10 16 0.00 0.00
1:53 pm 13:53 Sunny 22 -5.6 7 -13.9 52 52 WNW 12 19 30.21 1023 10 16 0.00 0.00
2:53 pm 14:53 Sunny 23 -5 8 -13.3 53 53 W 13 20 30.21 1023 10 16 0.00 0.00
3:53 pm 15:53 Sunny 22 -5.6 8 -13.3 55 55 W 10 17 30.22 1023 10 16 0.00 0.00
4:53 pm 16:53 Clear 22 -5.6 9 -12.8 57 57 W 5 7 30.23 1024 10 16 0.00 0.00
5:53 pm 17:53 Clear 20 -6.7 9 -12.8 62 62 WSW 5 7 30.24 1024 10 16 0.00 0.00
6:53 pm 18:53 Partly Cloudy 20 -6.7 9 -12.8 62 62 SW 7 11 30.24 1024 10 16 0.00 0.00
7:53 pm 19:53 Partly Cloudy 18 -7.8 9 -12.8 68 68 SW 8 13 30.25 1024 10 16 0.00 0.00
8:53 pm 20:53 Partly Cloudy 17 -8.3 9 -12.8 70 70 WSW 10 17 30.25 1025 10 16 0.00 0.00
9:53 pm 21:53 Cloudy 17 -8.3 10 -12.2 74 74 WSW 8 13 30.24 1024 10 16 0.00 0.00
10:53 pm 22:53 Mostly Cloudy 17 -8.3 10 -12.2 74 74 WSW 7 11 30.24 1024 10 16 0.00 0.00
11:53 pm 23:53 Partly Cloudy 16 -8.9 10 -12.2 77 77 SW 6 9 30.25 1024 10 16 0.00 0.00

Powered by AerisWeather